Location: Achern
(48.6268°N, 8.0772°E)
Time: 00:04:45
(UTC+00:00)

Daily predictions for brighter satellites

Satellite Brightness Start Highest point End
(mag) Time Altitude Azimuth Time Altitude Azimuth Time Altitude Azimuth
ATLAS 3B R/B 4.4 01:38:53 26° NNE 01:38:53 26° NNE 01:41:57 10° NE
Cosmos 1980 Rocket 4.2 02:14:46 23° E 02:14:46 23° E 02:17:29 10° ESE
CENTAUR R/B 4.4 02:24:04 24° NNW 02:25:49 26° N 02:32:22 10° NE
Cosmos 1833 Rocket 4.1 02:32:37 34° ENE 02:32:37 34° ENE 02:36:11 10° NE
ADEOS II 4.4 02:35:13 10° N 02:36:18 16° N 02:36:18 16° N
BREEZE-M DEB (TANK) 4.4 02:45:51 59° ESE 02:45:51 59° ESE 02:57:43 10° ESE
CZ-2C R/B 4.0 02:44:53 10° NNE 02:48:27 32° ENE 02:48:27 32° ENE
Lacrosse 5 3.5 02:57:41 30° NNE 02:57:41 30° NNE 03:00:49 10° NE
IDEFIX/ARIANE 42P 4.3 02:58:14 10° N 03:00:23 25° N 03:00:23 25° N
ALOS 4.2 03:02:58 10° NE 03:06:54 26° E 03:08:41 21° SE
NOSS 3-1 (C) 3.3 03:19:38 75° NNE 03:19:38 75° NNE 03:25:36 10° NE
PAYLOAD A 4.3 03:15:23 10° NNE 03:19:59 67° ENE 03:19:59 67° ENE
Cosmos 2278 3.7 03:21:44 70° N 03:22:17 77° ENE 03:28:00 10° SSE
ATLAS 3B R/B 4.1 03:26:07 21° NNW 03:27:52 24° N 03:33:16 10° NE
X-37B 3.7 03:31:20 13° ESE 03:31:20 13° ESE 03:31:48 10° ESE
BREEZE-M DEB (TANK) 4.4 03:29:32 40° SSE 03:29:37 40° SSE 03:32:57 10° E
USA 267 4.0 03:24:37 10° ENE 03:30:43 43° N 03:32:33 36° NW
COSMOS 2406 3.3 03:31:37 62° NNW 03:31:37 62° NNW 03:36:50 10° NNE
Cosmos 1932 4.3 03:32:30 54° NW 03:34:05 89° WSW 03:40:19 10° SE
NOSS 2-3 (C) 4.0 03:40:02 61° NNE 03:40:02 61° NNE 03:44:23 10° NE
Genesis I 4.4 03:40:11 38° ESE 03:40:11 38° ESE 03:43:23 10° NE
Cosmos 2360 Rocket 4.4 03:35:54 10° N 03:40:21 23° NE 03:44:46 10° E
H-2A R/B 2.7 03:37:33 10° SSE 03:41:48 55° ENE 03:45:59 10° N
SeaSat 1 2.6 03:37:21 10° SSE 03:41:24 61° SSE 03:41:24 61° SSE
Meteor 2-8 Rocket 4.3 03:43:35 51° SSW 03:45:13 81° W 03:51:24 10° N
ARIANE 5 R/B 4.0 03:41:42 10° N 03:43:58 23° NNW 03:43:58 23° NNW
FENGYUN 3A 3.9 03:42:48 10° NNE 03:48:14 66° ESE 03:52:12 19° S
ISS -1.8 03:50:13 26° ESE 03:50:13 26° ESE 03:52:24 10° E
Cosmos 2082 Rocket 2.1 03:49:55 56° SSW 03:51:12 88° WNW 03:56:58 10° NNE
USA 229 DEB 3.5 03:54:21 51° WSW 03:56:05 72° NW 04:03:02 10° NE
USA 229 3.5 03:54:26 51° WSW 03:56:11 73° NW 04:03:08 10° NE
Cosmos 1980 Rocket 2.1 03:56:41 58° WSW 03:56:52 58° WSW 04:02:26 10° S
Meteor 2-3 Rocket 3.6 03:51:20 10° NNW 03:56:59 66° W 04:02:39 10° S
Cosmos 1244 Rocket 4.3 03:55:12 10° NNW 04:01:20 71° W 04:07:30 10° S
Cosmos 2322 Rocket 3.2 04:00:48 10° NNW 04:06:15 47° NE 04:11:42 10° SE
ATLAS CENTAUR R/B 1.9 04:04:52 33° NNW 04:06:22 54° NE 04:10:28 10° SE
Iridium 4 Rocket 3.3 04:03:36 24° S 04:06:47 76° W 04:11:37 10° N
CZ-4B R/B 3.0 04:05:18 10° SE 04:08:13 33° ENE 04:11:06 10° N
METEOR-M 4.2 04:05:19 10° NNE 04:10:41 76° ESE 04:16:01 10° S
ADEOS 4.2 04:07:23 10° NNE 04:12:33 57° ESE 04:17:41 10° S
NOSS 3-1 (A) 3.3 04:10:50 44° WSW 04:12:35 65° NW 04:19:07 10° NE
Cosmos 1110 Rocket 3.9 04:09:13 10° NNW 04:14:30 70° WSW 04:19:43 10° SSE
Cosmos 1833 Rocket 3.2 04:14:19 36° WNW 04:14:55 37° NW 04:20:08 10° NNE
COSMO-SKYMED 1 3.2 04:13:35 10° SSE 04:17:49 58° ENE 04:22:07 10° N
Meteor 2-15 Rocket 4.3 04:12:29 10° SSW 04:18:39 81° W 04:24:50 10° N
CENTAUR R/B 4.3 04:11:44 10° NW 04:18:45 38° NNE 04:26:39 10° E
Cosmos 1862 3.8 04:19:53 10° N 04:23:56 63° ENE 04:27:57 10° SSE
Cosmos 1743 Rocket 4.4 04:19:57 10° N 04:24:21 54° ENE 04:28:44 10° SSE
SL-16 R/B 2.3 04:20:29 10° NNW 04:26:12 77° ENE 04:31:53 10° SSE
CZ-2C R/B 3.0 04:23:10 10° N 04:27:36 34° WNW 04:27:51 33° WNW
CREW DRAGON DEMO-1 DEB 3.8 04:28:39 34° SSE 04:28:39 34° SSE 04:30:38 10° SE
Meteor 1-31 Rocket 3.0 04:25:20 10° NNE 04:29:15 72° ESE 04:33:07 10° S
ERS-2 4.0 04:26:54 10° SE 04:30:08 31° ENE 04:33:23 10° N
Cosmos 1386 Rocket 4.5 04:24:39 10° N 04:31:06 83° W 04:37:29 10° S
Cosmos 2219 Rocket 4.4 04:27:24 10° N 04:31:47 22° NE 04:36:10 10° E
Cosmos 1553 Rocket 4.0 04:25:36 10° SSW 04:31:58 69° WNW 04:38:19 10° N
PSLV R/B 4.2 04:28:03 10° N 04:32:01 35° WNW 04:32:10 35° WNW
Meteor 1-4 Rocket 3.8 04:28:34 10° SSE 04:32:07 43° E 04:35:39 10° NNE
Cosmos 1417 Rocket 4.4 04:27:10 10° SSW 04:33:23 76° W 04:39:43 10° N
Cosmos 1766 Rocket 4.1 04:30:21 10° NNW 04:34:29 37° W 04:38:34 10° SSW
NOSS 2-3 (E) 4.5 04:33:18 30° WNW 04:34:30 35° NNW 04:39:23 10° NNE
Cosmos 1048 Rocket 4.2 04:33:43 31° WSW 04:35:44 47° WNW 04:40:44 10° NNE
NOSS 2-2 (D) 4.4 04:34:43 11° S 04:37:48 38° ESE 04:41:17 10° NE
Lacrosse 5 3.1 04:36:52 17° NW 04:40:07 34° N 04:44:44 10° ENE
Cosmos 494 Rocket 4.0 04:36:53 21° SW 04:40:13 59° WNW 04:45:21 10° NNE
SKYMED 3 4.5 04:37:29 10° SSE 04:41:50 82° WSW 04:46:13 10° NNW
CZ-4B R/B 3.6 04:37:54 10° NNE 04:41:51 83° WNW 04:45:35 10° SSW
Lacrosse 4 Rocket 3.6 04:40:34 10° NNW 04:44:23 26° NE 04:48:09 10° E
ALOS 2.7 04:40:04 10° N 04:44:27 41° WNW 04:47:12 20° SW
Cosmos 1269 Rocket 4.1 04:44:13 10° SSW 04:49:29 81° ESE 04:54:48 10° NNE
Cosmos 1408 Rocket 3.8 04:47:47 10° NNW 04:52:03 44° W 04:56:15 10° SSW
Cosmos 1484 Rocket 3.5 04:52:04 10° N 04:55:21 30° WNW 04:56:28 25° W
deb Chang Zheng 4 3.9 04:53:40 10° NNE 04:57:55 67° ESE 05:02:10 10° S
Cosmos 389 Rocket 4.1 04:59:23 17° NW 04:59:23 17° NW 05:01:10 10° NNW
Cosmos 1689 Rocket 3.1 04:57:19 10° SSE 05:00:02 46° ENE 05:02:47 10° N
MOS 1 Rocket 3.2 04:59:06 10° S 05:03:16 51° W 05:07:33 10° NNW
Cosmos 1500 Rocket 3.5 04:59:58 10° NNW 05:04:15 61° W 05:08:31 10° S
X-37B 1.5 05:03:37 22° WSW 05:05:09 37° S 05:08:07 10° ESE
SKYMED 2 3.8 05:01:44 10° S 05:05:54 47° W 05:10:08 10° NNW
H-2A R/B 2.8 05:05:06 10° NNE 05:09:01 87° ESE 05:12:55 10° SSW
Cosmos 1842 Rocket 3.8 05:06:19 10° SSW 05:10:29 43° WNW 05:14:41 10° N
Cosmos 2333 Rocket 3.5 05:06:29 10° NNW 05:11:57 42° NE 05:17:24 10° ESE
Sich 1 3.5 05:08:09 10° N 05:12:37 69° E 05:17:01 10° SSE
Cosmos 2221 2.9 05:08:38 10° SSW 05:12:48 43° WNW 05:17:00 10° N
USA 267 3.9 05:06:48 10° E 05:13:04 51° NNE 05:19:21 10° WNW
S3M 4.2 05:09:14 10° SSW 05:15:05 47° WNW 05:21:01 10° N
Genesis I 4.2 05:15:05 16° W 05:17:24 29° NW 05:20:51 10° NNE
SJ-12 4.3 05:14:10 10° N 05:18:03 42° WNW 05:21:53 10° SW
H-2A R/B 3.5 05:15:10 10° SW 05:18:04 17° W 05:20:58 10° NW
YAOGAN 6 2.6 05:16:14 10° NNE 05:19:50 81° ESE 05:23:21 10° S
SeaSat 1 4.1 05:18:09 10° SW 05:20:28 13° WSW 05:21:16 13° W
ATLAS 3B R/B 4.3 05:15:15 10° NW 05:20:53 26° NNE 05:26:42 10° ENE
Meteor PRIRODA 3.6 05:18:00 10° N 05:21:41 64° WNW 05:25:21 10° SSW
NOSS 3-2 (A) 4.3 05:16:44 10° NW 05:24:07 75° NE 05:32:33 10° SE
Cosmos 2360 Rocket 2.2 05:19:21 10° NNW 05:25:05 84° WSW 05:30:45 10° SSE
ISS -3.7 05:23:11 13° WSW 05:26:04 73° NNW 05:29:27 10° ENE
Cosmos 1992 Rocket 4.0 05:20:53 10° NNW 05:26:08 84° WSW 05:31:21 10° SSE
NOSS 2-2 (C) 3.0 05:22:48 10° SW 05:26:16 72° NW 05:30:11 10° NE
Envisat 3.0 05:22:23 10° NNE 05:27:31 90° ESE 05:32:36 10° SSW
Cosmos 1633 Rocket 4.0 05:25:03 10° N 05:29:24 53° ENE 05:33:42 10° SSE
Cosmos 1709 Rocket 4.3 05:29:22 10° NNW 05:35:24 47° W 05:41:27 10° SSW
Cosmos 2082 Rocket 3.6 05:31:50 10° W 05:36:08 21° NW 05:40:27 10° N
Cosmos 2251 Rocket 4.2 05:32:21 10° S 05:37:35 62° ESE 05:42:53 10° NNE
COSMOS 2428 3.7 05:34:58 10° NNW 05:40:31 49° NE 05:46:03 10° SE
CZ-4B R/B 2.9 05:38:30 10° SW 05:40:31 15° W 05:42:31 10° NW
SL-27 R/B 2.7 05:37:40 10° SW 05:41:05 48° WNW 05:44:35 10° NNE
BREEZE-M DEB (TANK) 2.7 05:39:46 10° WNW 05:41:45 32° N 05:43:58 10° ENE
Okean O Rocket 3.5 05:37:46 10° NNE 05:41:50 37° E 05:45:54 10° SSE
NOSS 2-2 (E) 3.6 05:38:52 10° WSW 05:42:16 43° NW 05:46:11 10° NNE
ATLAS CENTAUR R/B 2.7 05:41:56 10° WNW 05:44:59 21° WSW 05:48:08 10° SSW
H-2A R/B 3.5 05:44:38 10° NNE 05:48:46 52° E 05:52:43 10° S
CZ-4B DEB 4.4 05:43:37 10° NNE 05:49:11 83° ESE 05:54:40 10° SSW
Cosmos 2322 Rocket 2.9 05:45:08 10° NW 05:50:08 33° WSW 05:55:08 10° SSW
Cosmos 2344 3.6 05:46:28 10° SW 05:53:55 79° NW 06:02:06 10° NE
